Simultaneous Nadir Overpasses (SNOs) Predictions

Prediction of SNOs between GOES-17 and METOP-C Satellite Orbit:

Table of predicted SNOs for the next 14.0 days since TLE Epoch: 3/27/2020
Index Date Time (GOES-17) GOES-17 Lat,Lon METOP-C Lat,Lon Distance(km) Time Diff (sec)
1 03/28/2020 06:52:21 -0.02,-137.21 -0.57,-139.80 294.17 80
2 03/29/2020 06:29:01 -0.01,-137.21 0.51,-134.80 274.18 80
3 03/30/2020 18:47:55 0.01,-137.21 0.47,-139.37 245.51 80
4 03/31/2020 18:29:55 0.00,-137.20 -0.62,-134.37 322.48 80
5 04/02/2020 06:48:55 -0.01,-137.17 -0.42,-138.96 204.61 80
6 04/03/2020 06:25:37 -0.01,-137.16 0.72,-133.98 362.88 80
7 04/04/2020 18:44:29 0.02,-137.15 0.31,-138.54 157.92 80
8 04/05/2020 18:26:30 0.02,-137.13 -0.78,-133.54 409.43 80
9 04/07/2020 06:45:30 -0.02,-137.09 -0.26,-138.13 118.61 80
10 04/08/2020 06:22:12 -0.02,-137.07 0.88,-133.14 448.26 80
11 04/09/2020 18:41:03 0.02,-137.05 0.19,-137.69 73.85 80




NCC Satellite Simultaneous Nadir Overpasses (SNOs) Prediction Service
